CW9181 Weather Reports


time (UTC)temp
C
wind
direction
speed
KPH
gust
KPH
rain 1hr
cm
rain 24hr
cm
rain mn
cm
humidity
%
barometer
mb
20260507105831 13 175 3.2 8.0 0.00 0.00 0.00 87 1018.0
20260507104833 13 116 1.6 4.8 0.00 0.00 0.00 86 1018.0
20260507103814 13 132 0.0 6.4 0.00 0.00 0.00 86 1018.0
20260507102813 13 133 3.2 8.0 0.00 0.00 0.00 86 1018.0
20260507101818 13 138 1.6 6.4 0.00 0.00 0.00 86 1018.0
20260507100802 13 120 0.0 0.0 0.00 0.00 0.00 86 1018.1
20260507095801 14 137 0.0 0.0 0.00 0.00 0.00 86 1018.1
20260507094802 14 118 0.0 6.4 0.00 0.00 0.00 86 1018.1
20260507093801 14 138 1.6 4.8 0.00 0.00 0.00 86 1018.2
20260507092821 14 147 1.6 6.4 0.00 0.00 0.00 86 1018.1
20260507091800 15 151 3.2 6.4 0.00 0.00 0.00 86 1018.2
20260507090839 15 128 0.0 4.8 0.00 0.00 0.00 86 1018.3
20260507085814 15 150 3.2 8.0 0.00 0.00 0.00 85 1018.2
20260507084836 15 122 3.2 6.4 0.00 0.00 0.00 85 1018.3
20260507083820 15 143 1.6 8.0 0.00 0.00 0.00 84 1018.2
20260507082813 15 150 3.2 8.0 0.00 0.00 0.00 84 1018.3
20260507081815 15 165 1.6 11.3 0.00 0.00 0.00 84 1018.2
20260507080814 15 150 3.2 9.7 0.00 0.00 0.00 84 1018.2
20260507075817 16 149 4.8 11.3 0.00 0.00 0.00 84 1018.1
20260507074823 16 145 1.6 6.4 0.00 0.00 0.00 83 1018.2
20260507073807 16 138 4.8 11.3 0.00 0.00 0.00 83 1018.3
20260507072811 16 142 4.8 11.3 0.00 0.00 0.00 83 1018.2
20260507071814 16 114 4.8 8.0 0.00 0.00 0.00 82 1018.1
20260507070807 16 118 4.8 8.0 0.00 0.00 0.00 81 1018.2
20260507065811 16 146 3.2 8.0 0.00 0.00 0.00 80 1018.3
20260507064822 17 122 3.2 8.0 0.00 0.00 0.00 79 1018.1
20260507063804 17 132 4.8 8.0 0.00 0.00 0.00 79 1018.1
20260507062801 17 114 6.4 9.7 0.00 0.00 0.00 79 1018.1
20260507061841 17 126 3.2 8.0 0.00 0.00 0.00 79 1018.0
20260507060819 17 134 3.2 4.8 0.00 0.00 0.00 78 1018.0
20260507055814 17 112 1.6 6.4 0.00 0.00 0.00 78 1017.9
20260507054832 17 127 3.2 4.8 0.00 0.00 0.00 77 1017.8
20260507053806 18 183 3.2 9.7 0.00 0.00 0.00 76 1017.9
20260507052819 18 172 1.6 6.4 0.00 0.00 0.00 76 1017.9
20260507051802 18 171 3.2 6.4 0.00 0.00 0.00 75 1017.9
20260507050801 18 236 1.6 12.9 0.00 0.00 0.00 75 1017.9
20260507045817 18 171 0.0 12.9 0.00 0.00 0.00 75 1017.8
20260507044818 19 203 3.2 11.3 0.00 0.00 0.00 74 1017.7
20260507043816 19 169 3.2 14.5 0.00 0.00 0.00 73 1017.6
20260507042812 19 202 6.4 12.9 0.00 0.00 0.00 73 1017.6
20260507041811 19 205 1.6 4.8 0.00 0.00 0.00 72 1017.5
20260507040831 20 120 0.0 0.0 0.00 0.00 0.00 71 1017.2
20260507035808 20 120 0.0 0.0 0.00 0.00 0.00 70 1017.1
20260507034829 20 121 0.0 6.4 0.00 0.00 0.00 69 1017.0
20260507033829 20 117 0.0 0.0 0.00 0.00 0.00 68 1017.0
20260507032824 21 110 0.0 0.0 0.00 0.00 0.00 67 1016.9
20260507031823 21 93 0.0 0.0 0.00 0.00 0.00 65 1016.8
20260507030819 21 306 0.0 0.0 0.00 0.00 0.00 64 1016.9
20260507025819 22 306 0.0 0.0 0.00 0.00 0.00 61 1016.7
20260507024804 22 306 0.0 0.0 0.00 0.00 0.00 60 1016.8
20260507023807 22 306 0.0 0.0 0.00 0.00 0.00 58 1016.7
20260507022807 23 306 0.0 0.0 0.00 0.00 0.00 57 1016.7
20260507021807 23 306 0.0 4.8 0.00 0.00 0.00 56 1016.7
20260507020807 23 289 1.6 4.8 0.00 0.00 0.00 56 1016.8
20260507015808 23 340 0.0 1.6 0.00 0.00 0.00 56 1016.7
20260507014811 23 341 1.6 4.8 0.00 0.00 0.00 55 1016.8
20260507013811 24 295 3.2 6.4 0.00 0.00 0.00 55 1016.8
20260507012809 24 303 1.6 6.4 0.00 0.00 0.00 55 1016.8
20260507011813 24 260 0.0 6.4 0.00 0.00 0.00 54 1016.8
20260507010815 24 339 4.8 8.0 0.00 0.00 0.00 55 1016.8
20260507005841 24 253 3.2 8.0 0.00 0.00 0.00 54 1016.8
20260507004801 24 8 1.6 6.4 0.00 0.00 0.00 56 1016.9
20260507003803 23 265 3.2 14.5 0.00 0.00 0.00 54 1017.0
20260507002819 23 302 0.0 9.7 0.00 0.00 0.00 56 1016.9
20260507001804 23 357 4.8 16.1 0.00 0.00 0.00 57 1016.9
20260507000807 23 205 4.8 12.9 0.00 0.00 0.00 56 1017.1
20260506235802 24 341 6.4 14.5 0.00 0.00 0.00 55 1017.1
20260506234804 24 260 4.8 12.9 0.00 0.00 0.00 55 1017.1
20260506233806 23 290 8.0 11.3 0.00 0.00 0.00 56 1017.2
20260506232804 23 316 4.8 16.1 0.00 0.00 0.00 54 1017.3
20260506231805 24 336 4.8 12.9 0.00 0.00 0.00 56 1017.4
20260506230825 23 326 6.4 16.1 0.00 0.00 0.00 56 1017.6
20260506225819 24 255 6.4 17.7 0.00 0.00 0.00 55 1017.8
20260506224800 23 134 1.6 12.9 0.00 0.00 0.00 56 1017.9
20260506223802 23 75 8.0 17.7 0.00 0.00 0.00 55 1018.0
20260506222818 23 41 4.8 12.9 0.00 0.00 0.00 55 1018.1
20260506221804 23 107 1.6 19.3 0.00 0.00 0.00 56 1018.3
20260506220805 22 260 1.6 16.1 0.00 0.00 0.00 56 1018.5
20260506215802 23 8 9.7 17.7 0.00 0.00 0.00 57 1018.5
20260506214806 22 327 6.4 16.1 0.00 0.00 0.00 57 1018.7
20260506213811 22 314 4.8 16.1 0.00 0.00 0.00 59 1018.7
20260506212812 22 270 4.8 16.1 0.00 0.00 0.00 58 1018.9
20260506211812 22 22 1.6 16.1 0.00 0.00 0.00 56 1018.9
20260506210815 22 291 4.8 12.9 0.00 0.00 0.00 60 1019.1
20260506205817 22 251 6.4 12.9 0.00 0.00 0.00 57 1019.3
20260506204818 22 51 3.2 12.9 0.00 0.00 0.00 57 1019.3
20260506203801 22 344 3.2 14.5 0.00 0.00 0.00 60 1019.6
20260506202808 21 193 1.6 9.7 0.00 0.00 0.00 58 1019.6
20260506201808 21 68 1.6 6.4 0.00 0.00 0.00 60 1019.7
20260506200812 21 325 1.6 8.0 0.00 0.00 0.00 62 1019.8
20260506195814 21 230 4.8 8.0 0.00 0.00 0.00 61 1019.8
20260506194817 21 21 4.8 14.5 0.00 0.00 0.00 61 1019.8
20260506193818 21 353 4.8 9.7 0.00 0.00 0.00 61 1020.1
20260506192820 20 265 4.8 8.0 0.00 0.00 0.00 62 1020.3
20260506191803 20 11 1.6 9.7 0.00 0.00 0.00 65 1020.3
20260506190803 20 239 4.8 11.3 0.00 0.00 0.00 63 1020.4
20260506185805 20 347 4.8 9.7 0.00 0.00 0.00 65 1020.4
20260506184810 20 299 3.2 9.7 0.00 0.00 0.00 65 1020.6
20260506183806 20 146 1.6 8.0 0.00 0.00 0.00 64 1020.6
20260506182807 20 321 1.6 9.7 0.00 0.00 0.00 65 1020.7
20260506181806 19 109 1.6 4.8 0.00 0.00 0.00 68 1020.7
20260506180801 18 154 3.2 6.4 0.00 0.00 0.00 68 1020.7
20260506175826 18 187 1.6 8.0 0.00 0.00 0.00 68 1020.7
20260506174804 18 246 1.6 8.0 0.00 0.00 0.00 71 1020.6
20260506173818 18 296 1.6 4.8 0.00 0.00 0.00 72 1020.6
20260506172803 17 253 3.2 4.8 0.00 0.00 0.00 73 1020.6
20260506171825 17 184 0.0 4.8 0.00 0.00 0.00 72 1020.7
20260506170802 17 124 1.6 4.8 0.00 0.00 0.00 74 1020.7
20260506165803 17 282 3.2 4.8 0.00 0.00 0.00 76 1020.6
20260506164825 16 178 1.6 6.4 0.00 0.00 0.00 76 1020.6
20260506163804 16 353 1.6 4.8 0.00 0.00 0.00 76 1020.6
20260506162826 16 195 1.6 6.4 0.00 0.00 0.00 76 1020.6
20260506161810 16 176 3.2 4.8 0.00 0.00 0.00 76 1020.6
20260506160805 16 172 3.2 6.4 0.00 0.00 0.00 77 1020.6
20260506155807 15 193 4.8 6.4 0.00 0.00 0.00 78 1020.5
20260506154808 15 196 3.2 8.0 0.00 0.00 0.00 78 1020.6
20260506153824 15 176 3.2 6.4 0.00 0.00 0.00 79 1020.5
20260506152806 15 136 1.6 6.4 0.00 0.00 0.00 79 1020.5
20260506151807 15 118 4.8 8.0 0.00 0.00 0.00 80 1020.4
20260506150811 15 181 1.6 4.8 0.00 0.00 0.00 81 1020.5
20260506145811 15 151 3.2 8.0 0.00 0.00 0.00 81 1020.4
20260506144816 14 199 3.2 6.4 0.00 0.00 0.00 81 1020.4
20260506143819 14 199 3.2 9.7 0.00 0.00 0.00 82 1020.4
20260506142818 14 178 3.2 6.4 0.00 0.00 0.00 82 1020.5
20260506141801 14 189 1.6 6.4 0.00 0.00 0.00 82 1020.4
20260506140807 14 201 0.0 4.8 0.00 0.00 0.00 82 1020.3
20260506135806 14 153 0.0 4.8 0.00 0.00 0.00 82 1020.1
20260506134808 14 164 1.6 6.4 0.00 0.00 0.00 82 1020.0
20260506133812 14 182 4.8 6.4 0.00 0.00 0.00 82 1019.8
20260506132815 14 135 0.0 9.7 0.00 0.00 0.00 82 1019.8
20260506131815 14 128 3.2 6.4 0.00 0.00 0.00 82 1019.8
20260506130800 13 163 1.6 6.4 0.00 0.00 0.00 82 1019.8
20260506125801 13 137 3.2 8.0 0.00 0.00 0.00 82 1019.8
20260506124817 13 124 1.6 6.4 0.00 0.00 0.00 82 1019.8
20260506123804 13 141 1.6 9.7 0.00 0.00 0.00 82 1019.7
20260506122806 14 168 0.0 6.4 0.00 0.00 0.00 83 1019.6
20260506121807 14 140 1.6 6.4 0.00 0.00 0.00 83 1019.5
20260506120811 14 155 4.8 11.3 0.00 0.00 0.00 82 1019.5
20260506115815 14 125 1.6 9.7 0.00 0.00 0.00 82 1019.3
20260506114819 14 123 3.2 6.4 0.00 0.00 0.00 82 1019.3
20260506113840 14 141 3.2 6.4 0.00 0.00 0.00 82 1019.4
20260506112803 14 143 0.0 6.4 0.00 0.00 0.00 82 1019.4
20260506111804 14 114 0.0 6.4 0.00 0.00 0.00 82 1019.3
20260506110803 14 128 4.8 8.0 0.00 0.00 0.00 82 1019.2